| time (UTC) | temp F | wind direction | speed MPH | gust MPH | rain 1hr in | rain 24hr in | rain mn in | humidity % | barometer mb |
| 20260904224515 | 79 | 0.0 | 1.0 | 0.00 | 0.02 | 0.02 | 93 | 1008.0 | |
| 20260904223015 | 79 | 0.0 | 0.0 | 0.02 | 0.02 | 0.02 | 92 | 1007.9 | |
| 20260904221537 | 79 | 0.0 | 3.0 | 0.02 | 0.02 | 0.02 | 90 | 1008.0 | |
| 20260904220017 | 79 | 158 | 1.0 | 7.0 | 0.02 | 0.02 | 0.02 | 93 | 1008.6 |
| 20260904214515 | 79 | 0.0 | 6.0 | 0.02 | 0.02 | 0.02 | 92 | 1010.0 | |
| 20260904213015 | 81 | 45 | 4.0 | 19.0 | 0.00 | 0.00 | 0.00 | 80 | 1011.2 |
| 20260904211555 | 89 | 23 | 3.0 | 16.0 | 0.00 | 0.00 | 0.00 | 55 | 1010.8 |
| 20260904210037 | 96 | 0.0 | 2.0 | 0.00 | 0.00 | 0.00 | 47 | 1008.7 | |
| 20260904204516 | 96 | 0.0 | 3.0 | 0.00 | 0.00 | 0.00 | 45 | 1008.6 | |
| 20260904203015 | 96 | 0.0 | 4.0 | 0.00 | 0.00 | 0.00 | 47 | 1008.5 | |
| 20260904201515 | 96 | 0.0 | 1.0 | 0.00 | 0.00 | 0.00 | 49 | 1008.9 | |
| 20260904200016 | 97 | 0.0 | 3.0 | 0.00 | 0.00 | 0.00 | 46 | 1008.9 | |
| 20260904194515 | 97 | 0.0 | 3.0 | 0.00 | 0.00 | 0.00 | 46 | 1009.0 | |
| 20260904193037 | 97 | 0.0 | 4.0 | 0.00 | 0.00 | 0.00 | 46 | 1008.9 | |
| 20260904191537 | 96 | 0.0 | 6.0 | 0.00 | 0.00 | 0.00 | 50 | 1009.1 | |
| 20260904190017 | 96 | 0.0 | 5.0 | 0.00 | 0.00 | 0.00 | 48 | 1009.4 | |
| 20260904184516 | 96 | 0.0 | 7.0 | 0.00 | 0.00 | 0.00 | 51 | 1009.6 | |
| 20260904183016 | 96 | 0.0 | 5.0 | 0.00 | 0.00 | 0.00 | 49 | 1009.9 | |
| 20260904181515 | 97 | 68 | 1.0 | 6.0 | 0.00 | 0.00 | 0.00 | 46 | 1010.1 |
| 20260904180058 | 97 | 0.0 | 3.0 | 0.00 | 0.00 | 0.00 | 48 | 1010.3 | |
| 20260904174516 | 96 | 0.0 | 5.0 | 0.00 | 0.00 | 0.00 | 49 | 1010.5 | |
| 20260904173016 | 96 | 0.0 | 3.0 | 0.00 | 0.00 | 0.00 | 50 | 1010.7 | |
| 20260904171538 | 96 | 45 | 1.0 | 6.0 | 0.00 | 0.00 | 0.00 | 50 | 1010.7 |
| 20260904170016 | 96 | 0.0 | 5.0 | 0.00 | 0.00 | 0.00 | 50 | 1010.8 | |
| 20260904164516 | 96 | 0.0 | 7.0 | 0.00 | 0.00 | 0.00 | 49 | 1010.7 | |
| 20260904163015 | 95 | 0.0 | 3.0 | 0.00 | 0.00 | 0.00 | 52 | 1010.8 | |
| 20260904161516 | 95 | 0.0 | 7.0 | 0.00 | 0.00 | 0.00 | 52 | 1010.9 | |
| 20260904160016 | 94 | 0.0 | 5.0 | 0.00 | 0.00 | 0.00 | 53 | 1010.8 | |
| 20260904154516 | 94 | 0.0 | 3.0 | 0.00 | 0.00 | 0.00 | 56 | 1010.9 | |
| 20260904153016 | 93 | 0.0 | 2.0 | 0.00 | 0.00 | 0.00 | 62 | 1011.0 | |
| 20260904151516 | 92 | 0.0 | 2.0 | 0.00 | 0.00 | 0.00 | 62 | 1010.8 | |
| 20260904150016 | 91 | 0.0 | 2.0 | 0.00 | 0.00 | 0.00 | 63 | 1010.7 | |
| 20260904144516 | 89 | 0.0 | 2.0 | 0.00 | 0.00 | 0.00 | 65 | 1010.7 | |
| 20260904143036 | 88 | 0.0 | 3.0 | 0.00 | 0.00 | 0.00 | 67 | 1010.8 | |
| 20260904141516 | 87 | 0.0 | 1.0 | 0.00 | 0.00 | 0.00 | 72 | 1010.7 | |
| 20260904140018 | 85 | 0.0 | 2.0 | 0.00 | 0.00 | 0.00 | 71 | 1010.8 | |
| 20260904134536 | 84 | 0.0 | 3.0 | 0.00 | 0.00 | 0.00 | 75 | 1010.9 | |
| 20260904133017 | 83 | 0.0 | 1.0 | 0.00 | 0.00 | 0.00 | 78 | 1011.1 | |
| 20260904131516 | 82 | 0.0 | 1.0 | 0.00 | 0.00 | 0.00 | 81 | 1011.1 | |
| 20260904130016 | 80 | 0.0 | 2.0 | 0.00 | 0.00 | 0.00 | 86 | 1011.1 | |
| 20260904124517 | 78 | 0.0 | 1.0 | 0.00 | 0.00 | 0.00 | 94 | 1011.1 | |
| 20260904123016 | 77 | 0.0 | 0.0 | 0.00 | 0.00 | 0.00 | 98 | 1010.9 | |
| 20260904121518 | 77 | 0.0 | 0.0 | 0.00 | 0.00 | 0.00 | 97 | 1010.8 | |
| 20260904120016 | 77 | 0.0 | 0.0 | 0.00 | 0.00 | 0.00 | 97 | 1010.6 | |
| 20260904114516 | 77 | 0.0 | 0.0 | 0.00 | 0.00 | 0.00 | 97 | 1010.4 | |
| 20260904113038 | 77 | 0.0 | 0.0 | 0.00 | 0.00 | 0.00 | 97 | 1010.3 | |
| 20260904111517 | 77 | 0.0 | 1.0 | 0.00 | 0.00 | 0.00 | 97 | 1010.1 | |
| 20260904110018 | 77 | 0.0 | 0.0 | 0.00 | 0.00 | 0.00 | 98 | 1009.9 | |
| 20260904104516 | 76 | 0.0 | 1.0 | 0.00 | 0.00 | 0.00 | 100 | 1009.7 | |
| 20260904103016 | 76 | 0.0 | 0.0 | 0.00 | 0.00 | 0.00 | 99 | 1009.7 | |
| 20260904101516 | 76 | 0.0 | 0.0 | 0.00 | 0.00 | 0.00 | 99 | 1009.8 | |
| 20260904100016 | 76 | 0.0 | 0.0 | 0.00 | 0.00 | 0.00 | 99 | 1009.6 | |
| 20260904094516 | 77 | 0.0 | 0.0 | 0.00 | 0.00 | 0.00 | 99 | 1009.7 | |
| 20260904093016 | 77 | 0.0 | 0.0 | 0.00 | 0.00 | 0.00 | 99 | 1009.7 | |
| 20260904091517 | 77 | 0.0 | 0.0 | 0.00 | 0.00 | 0.00 | 98 | 1009.7 | |
| 20260904090037 | 77 | 0.0 | 0.0 | 0.00 | 0.00 | 0.00 | 98 | 1009.7 | |
| 20260904084518 | 77 | 0.0 | 0.0 | 0.00 | 0.00 | 0.00 | 98 | 1009.7 | |
| 20260904083016 | 77 | 0.0 | 0.0 | 0.00 | 0.00 | 0.00 | 98 | 1009.8 | |
| 20260904081516 | 77 | 0.0 | 0.0 | 0.00 | 0.00 | 0.00 | 98 | 1009.8 | |
| 20260904080016 | 77 | 0.0 | 0.0 | 0.00 | 0.00 | 0.00 | 97 | 1009.8 | |
| 20260904074518 | 77 | 0.0 | 0.0 | 0.00 | 0.00 | 0.00 | 97 | 1009.9 | |
| 20260904073017 | 77 | 0.0 | 0.0 | 0.00 | 0.00 | 0.00 | 97 | 1009.9 | |
| 20260904071517 | 77 | 0.0 | 0.0 | 0.00 | 0.00 | 0.00 | 96 | 1010.1 | |
| 20260904070017 | 77 | 0.0 | 0.0 | 0.00 | 0.00 | 0.00 | 96 | 1010.1 | |
| 20260904064516 | 77 | 0.0 | 0.0 | 0.00 | 0.00 | 0.00 | 95 | 1010.2 | |
| 20260904063016 | 77 | 0.0 | 0.0 | 0.00 | 0.00 | 0.00 | 94 | 1010.1 | |
| 20260904061537 | 78 | 0.0 | 0.0 | 0.00 | 0.00 | 0.00 | 94 | 1010.2 | |
| 20260904060017 | 78 | 0.0 | 0.0 | 0.00 | 0.00 | 0.00 | 94 | 1010.2 | |
| 20260904054538 | 78 | 0.0 | 0.0 | 0.00 | 0.00 | 0.00 | 93 | 1010.1 | |
| 20260904053017 | 78 | 0.0 | 0.0 | 0.00 | 0.00 | 0.00 | 93 | 1010.2 | |
| 20260904051518 | 78 | 0.0 | 0.0 | 0.00 | 0.00 | 0.00 | 92 | 1010.2 | |
| 20260904050016 | 78 | 0.0 | 0.0 | 0.00 | 0.00 | 0.00 | 91 | 1010.3 | |
| 20260904044517 | 79 | 0.0 | 0.0 | 0.00 | 0.00 | 0.00 | 91 | 1010.2 | |
| 20260904043017 | 79 | 0.0 | 0.0 | 0.00 | 0.00 | 0.00 | 90 | 1010.2 | |
| 20260904041518 | 78 | 0.0 | 0.0 | 0.00 | 0.00 | 0.00 | 91 | 1010.1 | |
| 20260904040037 | 78 | 0.0 | 0.0 | 0.00 | 0.00 | 0.00 | 91 | 1010.2 | |
| 20260904034535 | 79 | 0.0 | 0.0 | 0.00 | 0.00 | 0.00 | 91 | 1010.1 | |
| 20260904033015 | 79 | 0.0 | 0.0 | 0.00 | 0.00 | 0.00 | 91 | 1010.2 | |
| 20260904031515 | 79 | 0.0 | 0.0 | 0.00 | 0.00 | 0.00 | 90 | 1010.1 | |
| 20260904030015 | 79 | 0.0 | 0.0 | 0.00 | 0.00 | 0.00 | 90 | 1010.2 | |
| 20260904024515 | 79 | 0.0 | 0.0 | 0.00 | 0.00 | 0.00 | 89 | 1010.1 | |
| 20260904023015 | 80 | 0.0 | 0.0 | 0.00 | 0.00 | 0.00 | 88 | 1010.2 | |
| 20260904021515 | 80 | 0.0 | 0.0 | 0.00 | 0.00 | 0.00 | 87 | 1010.1 | |
| 20260904020016 | 80 | 0.0 | 0.0 | 0.00 | 0.00 | 0.00 | 86 | 1010.2 | |
| 20260904014515 | 81 | 0.0 | 0.0 | 0.00 | 0.00 | 0.00 | 86 | 1010.3 | |
| 20260904013015 | 81 | 0.0 | 0.0 | 0.00 | 0.00 | 0.00 | 85 | 1010.4 | |
| 20260904011537 | 82 | 0.0 | 0.0 | 0.00 | 0.00 | 0.00 | 85 | 1010.1 | |
| 20260904010015 | 82 | 0.0 | 0.0 | 0.00 | 0.00 | 0.00 | 83 | 1010.1 | |
| 20260904004516 | 83 | 0.0 | 0.0 | 0.00 | 0.00 | 0.00 | 80 | 1010.0 | |
| 20260904003015 | 84 | 0.0 | 0.0 | 0.00 | 0.00 | 0.00 | 80 | 1009.7 | |
| 20260904001517 | 85 | 0.0 | 0.0 | 0.00 | 0.00 | 0.00 | 77 | 1009.6 | |
| 20260904000015 | 87 | 0.0 | 0.0 | 0.00 | 0.00 | 0.00 | 75 | 1009.6 | |
| 20260903234536 | 88 | 0.0 | 0.0 | 0.00 | 0.00 | 0.00 | 72 | 1009.5 | |
| 20260903233016 | 89 | 0.0 | 0.0 | 0.00 | 0.00 | 0.00 | 69 | 1009.5 | |
| 20260903231558 | 89 | 0.0 | 0.0 | 0.00 | 0.00 | 0.00 | 65 | 1009.4 | |
| 20260903230016 | 90 | 0.0 | 0.0 | 0.00 | 0.00 | 0.00 | 62 | 1009.6 |